HLLMDAAG

Guest
Details From HLLM - MITIGA
To DAAG - Alger Houari Boumediene
Flight Number -
Tags generated
Created
Modified
Stats Distance 556 nm / 1,030 km
Max Altitude 34,400 ft / 10,485 m
Waypoints 10
Social Downloads 0
Likes 0
Share VATSIM

Download

Looking for another format? Having issues loading an existing format? Contact us
Advertisement - Login to hide

Notes

Basic altitude profile: - Ascent Rate: 2500ft/min - Ascent Speed: 250kts - Cruise Altitude: 34000ft - Cruise Speed: 420kts - Descent Rate: 1500ft/min - Descent Speed: 250kts Options: - Use NATs: yes - Use PACOTS: yes - Use low airways: no - Use high airways: yes

Route

HLLM TANLI UA411 JBA UA856 TBS UA31 BABOR DAAG

ID Type Via Altitude Latitude Longitude Leg Dist Tot Dist Heading (true) Name
O HLLM APT - 0 ft / 0 m 32.89508˚ 13.28242˚ - 0 nm - MITIGA
TANLI FIX - 34,400 ft / 10,485 m 33.49389˚ 11.50000˚ 96 nm 96 nm 292° / 291° -
JBA VOR UA411 (AWY-HI) 34,000 ft / 10,363 m 33.87722˚ 10.77141˚ 43 nm 139 nm 303° / 302° DJERBA VOR-DME
KIRAS FIX UA856 (AWY-HI) 34,000 ft / 10,363 m 34.40611˚ 9.92028˚ 52 nm 192 nm 307° / 307° -
BAN VOR UA856 (AWY-HI) 34,000 ft / 10,363 m 34.86333˚ 9.16778˚ 46 nm 238 nm 307° / 306° SIDI BEN AOUN VOR
TBS VOR UA856 (AWY-HI) 34,000 ft / 10,363 m 35.45667˚ 8.06861˚ 64 nm 303 nm 304° / 303° TEBESSA VOR-DME
CSO VOR UA31 (AWY-HI) 34,000 ft / 10,363 m 36.29261˚ 6.60555˚ 87 nm 390 nm 306° / 305° CONSTANTINE VOR-DME
TAJEN FIX UA31 (AWY-HI) 26,600 ft / 8,108 m 36.37361˚ 5.85306˚ 36 nm 427 nm 278° / 277° -
BABOR FIX UA31 (AWY-HI) 24,500 ft / 7,468 m 36.46667˚ 5.00000˚ 41 nm 468 nm 278° / 277° -
O DAAG APT - 0 ft / 0 m 36.69752˚ 3.21308˚ 87 nm 556 nm 280° / 279° Alger Houari Boumediene

Altitude Profile

Advertisement - Login to hide

Weather


0- 5 10 15 20 25 30 35+ Temperature / ° C

Clouds and Precipitation
Forecast for 2018-05-25 18:00 UTC. Updated 21 minutes ago

Ground ~20,000 ft ~40,000 ft Winds

HLLM

Details ICAO HLLM (MJI)
Name MITIGA
Region Libya
Timezone Africa/Tripoli (UTC+2.0)
Stats Elevation 36 ft / 11 m (AMSL)
Location 32.895083° 13.282417°
Runways 2
Magnetic Variation 2.686° E

METAR

HLLM 251650Z 09009KT 8000 SKC 23/17 Q1015

Decode

TAF

TAF HLLM 251100Z 2512/2612 09010KT CAVOK = TAF HLMS 251100Z 2512/2612 07010KT CAVOK BECMG 2521/2523 VRB02KT PROB30 TEMPO 2600/2606 5000 BR BECMG 2608/2610 08007KT

Decode

Departure Runways

ID Width Length Bearing (true) Bearing (mag) Surface Threshold Offset Overrun Length
03 148 ft / 45 m 5,966 ft / 1,819 m 29.95° 27.26° Asphalt 0 ft / 0 m 0 ft / 0 m
11 148 ft / 45 m 11,038 ft / 3,365 m 105.44° 102.75° Asphalt 0 ft / 0 m 900 ft / 274 m
21 148 ft / 45 m 5,966 ft / 1,819 m 209.95° 207.26° Asphalt 0 ft / 0 m 0 ft / 0 m
29 148 ft / 45 m 11,038 ft / 3,365 m 285.46° 282.77° Asphalt 0 ft / 0 m 1,000 ft / 305 m

DAAG

Details ICAO DAAG (ALG)
Name Alger Houari Boumediene
Region Algeria
Timezone Africa/Algiers (UTC+1.0)
Stats Elevation 82 ft / 25 m (AMSL)
Location 36.697521° 3.213079°
Runways 2
Magnetic Variation 1.103° E

METAR

DAAG 251730Z 36005KT 330V060 9999 FEW020 SCT083 22/17 Q1013

Decode

TAF

TAF DAAG 251100Z 2512/2612 36010KT 9999 FEW020 SCT046 PROB30 TEMPO 2514/2520 FEW023TCU BKN015 BECMG 2516/2519 VRB02KT PROB30 2600/2606 3000 BR BKN010

Decode

Destination Runways

ID Width Length Bearing (true) Bearing (mag) Surface Threshold Offset Overrun Length
05 197 ft / 60 m 11,459 ft / 3,493 m 52.87° 51.77° Asphalt 0 ft / 0 m 0 ft / 0 m
09 148 ft / 45 m 11,442 ft / 3,487 m 91.75° 90.65° Asphalt 0 ft / 0 m 1,017 ft / 310 m
23 197 ft / 60 m 11,459 ft / 3,493 m 232.89° 231.79° Asphalt 0 ft / 0 m 0 ft / 0 m
27 148 ft / 45 m 11,442 ft / 3,487 m 271.78° 270.68° Asphalt 0 ft / 0 m 0 ft / 0 m

Approach Navaids

Runway Type Ident Frequency Range Bearing (true) Bearing (mag) Slope Elevation
09 Localiser HB 108.50 MHz 18 nm / 33 km 91.73° 90.63° - 82 ft / 25 m (AMSL)
09 Glidescope HB 108.50 MHz 10 nm / 19 km 91.77° 90.66° 3.00° 82 ft / 25 m (AMSL)
23 Localiser AG 110.30 MHz 18 nm / 33 km 232.74° 231.64° - 82 ft / 25 m (AMSL)
23 Glidescope AG 110.30 MHz 10 nm / 19 km 232.88° 231.78° 3.00° 82 ft / 25 m (AMSL)